THORAD DELTA 1 DEB, 8165

Orbit data source: Space-Track

THORAD DELTA 1 DEB, 8165 is space debris in SSO originally from a launch on Fri, 15 Nov 1974 UTC launched from the Air Force Western Test Range (AFWTR). Debris objects in space refer to the collection of defunct objects orbiting the Earth. Examples of debris include non-operational satellites, rocket bodies, and fragments generated from explosions, collisions, or faulty payload assembly.

Loading next visibility...
THORAD DELTA 1 DEB details
Identifier
8165, 1974-089AF
Orbit
SSO
Last TLE update4 days ago
Origin
Flag of USGSFC (US)
ManufacturerUnknown
MissionSpacecraft
Bus & MotorUnknown
MassUnknown
Launch date (UTC)
1974-11-15 (50 years ago)
Launch vehicleUnknown
Launch site
Air Force Western Test Range (AFWTR)
Object type
Payload
Rocket body
Debris
Shape & HBRUnknown
Radar Cross SectionSmall (<0.1 m²)

Expand to show TLE details & history

TLE from 4 days ago
0 THORAD DELTA 1 DEB
1  8165U 74089AF  24357.78850418  .00000003  00000-0  30979-3 0  9994
2  8165 101.6485 302.7746 0017854 201.6362 187.9104 12.50122914285429
Epoch: 2024-12-22T18:55Z
Definitive object data (Epoch: 2024-12-22T18:55:26.761Z)
Latitude28.89722°
Longitude-79.40884°
Altitude1,481.146 km
Speed7.119 km/s
True Right ascension19h 45m 05s
True Declination28° 45' 55"
Sunlit
Object was in daylight at TLE epoch
Visualization TLE readout
Latitude59.57711°
Longitude-89.75808°
Altitude1,483.435 km
Speed7.123 km/s
Apparent Right ascension21h 08m 21s
Apparent Declination18° 52' 14"
Sunlit
Object is in daylight
Visualization observer readout
Local Sidereal Time10:48:02
Azimuth26.531° NE
Elevation-26.785°
Doppler factor1
Orbital elements
Apogee altitude1,475.519 km
Perigee altitude1,447.525 km
Semi-major axis7,839.659 km
Eccentricity0.0017854
Inclination101.6485°
RAAN302.7746°
Arg. of periapsis201.6362°
True anomaly187.88231°
Mean anomaly187.9104°
Eccentric anomaly187.89635°
Mean motion3.12678 °/min
BSTAR0.00030979
Orbital period115.13 mins
Loading maneuver chart data...

THORAD DELTA 1 DEB Visibility forecast

Observer location: undefined°, undefined

Span
Click to sort rows by Start time (UTC) header in descending order
Start Az.
Max El. time (UTC)
Max El. Az.
Max El.
End time (UTC)
End Az.
9 mins2024-12-26 11:43:41.918Z342.479° N2024-12-26 11:47:41.918Z311.002° NW17.166°2024-12-26 11:52:41.918Z272.917° WNW
12 mins2024-12-26 18:57:41.918Z108.607° ESE2024-12-26 19:02:41.918Z63.632° ENE27.856°2024-12-26 19:09:41.918Z2.061° NNE
15 mins2024-12-26 20:48:41.918Z179.379° S2024-12-26 20:55:41.918Z255.706° W41.132°2024-12-26 21:03:41.918Z335.461° NNW
14 mins2024-12-27 08:53:41.918Z32.927° NE2024-12-27 08:59:41.918Z98.891° ESE37.725°2024-12-27 09:07:41.918Z175.658° S
13 mins2024-12-27 10:46:41.918Z357.153° N2024-12-27 10:52:41.918Z298.9° NW31.225°2024-12-27 10:59:41.918Z238.043° WSW
|